Palacios, TX

1:08 AM CDT on May 28, 2017 (GMT -0500)
Palacios Municipal

Weather History for KPSX - November, 2011

Change the Weather History Date:

Thursday, November 17, 2011

  Actual Average Record
Temperature  
Mean Temperature 58 °F -  
Max Temperature 70 °F 72 °F 84 °F (1958)
Min Temperature 45 °F 54 °F 31 °F (1951)
Degree Days  
Heating Degree Days 7    
Growing Degree Days 8 (Base 50)    
Moisture  
Dew Point 45 °F    
Average Humidity 63    
Maximum Humidity 84    
Minimum Humidity 31    
Precipitation  
Precipitation 0.00 in - - ()
Sea Level Pressure  
Sea Level Pressure 30.27 in    
Wind  
Wind Speed 16 mph (NNE)    
Max Wind Speed 25 mph    
Max Gust Speed 32 mph    
Visibility 10 miles    
Events      
Averages and records for this station are not official NWS values.
T = Trace of Precipitation, MM = Missing Value Source: NWS Daily Summary

Daily Weather History Graph

Daily Weather History Graph

Search for Another Location

Airport or City:

Trip Planner

Search our weather history database for the weather conditions in past years. The results will help you decide how hot, cold, wet, or windy it might be!

Date:

Astronomy

Nov. 17, 2011 Rise Set
Actual Time 6:49 AM CST 5:30 PM CST
Civil Twilight 6:24 AM CST 5:55 PM CST
Nautical Twilight 5:55 AM CST 6:24 PM CST
Astronomical Twilight 5:27 AM CST 6:52 PM CST
Moon 11:41 PM CST (11/17) 12:06 PM CST (11/17)
Length of Visible Light 11h 31m
Length of Day
10h 41m
Waning Gibbous, 59% of the Moon is Illuminated
Nov 17
Waning Gibbous
Nov 18
Last Quarter
Nov 25
New
Dec 2
First Quarter
Dec 10
Full

Hourly Weather History & Observations

Time (CST) Temp. Windchill Dew Point Humidity Pressure Visibility Wind Dir Wind Speed Gust Speed Precip Events Conditions
12:53 AM 60.1 °F - 50.0 °F 69% 30.15 in 10.0 mi North 25.3 mph 32.2 mph N/A   Clear
1:53 AM 57.2 °F - 50.0 °F 77% 30.18 in 10.0 mi North 17.3 mph - N/A   Clear
2:31 AM 57.2 °F - 51.8 °F 82% 30.19 in 10.0 mi North 18.4 mph 23.0 mph N/A   Mostly Cloudy
2:38 AM 57.2 °F - 51.8 °F 82% 30.19 in 10.0 mi North 16.1 mph - N/A   Scattered Clouds
2:46 AM 57.2 °F - 51.8 °F 82% 30.20 in 10.0 mi North 18.4 mph 24.2 mph N/A   Mostly Cloudy
2:53 AM 57.9 °F - 51.1 °F 78% 30.20 in 10.0 mi North 19.6 mph 24.2 mph N/A   Mostly Cloudy
3:21 AM 57.2 °F - 51.8 °F 82% 30.21 in 10.0 mi North 15.0 mph 23.0 mph N/A   Mostly Cloudy
3:53 AM 55.9 °F - 51.1 °F 84% 30.22 in 10.0 mi North 13.8 mph - N/A   Mostly Cloudy
4:53 AM 57.9 °F - 52.0 °F 81% 30.24 in 10.0 mi North 16.1 mph - N/A   Overcast
5:53 AM 59.0 °F - 53.1 °F 81% 30.27 in 10.0 mi North 12.7 mph - N/A   Overcast
6:46 AM 59.0 °F - 53.6 °F 82% 30.29 in 10.0 mi North 13.8 mph - N/A   Overcast
6:53 AM 59.0 °F - 53.1 °F 81% 30.30 in 10.0 mi North 16.1 mph 23.0 mph N/A   Overcast
7:53 AM 57.9 °F - 46.0 °F 65% 30.35 in 10.0 mi NNE 17.3 mph - N/A   Clear
8:53 AM 60.1 °F - 43.0 °F 53% 30.35 in 10.0 mi NNE 23.0 mph 29.9 mph N/A   Clear
9:53 AM 62.1 °F - 42.1 °F 48% 30.37 in 10.0 mi NNE 18.4 mph 27.6 mph N/A   Clear
10:53 AM 64.4 °F - 42.8 °F 45% 30.36 in 10.0 mi ENE 15.0 mph - N/A   Clear
11:53 AM 66.0 °F - 42.1 °F 42% 30.35 in 10.0 mi NNE 10.4 mph - N/A   Clear
12:53 PM 68.0 °F - 41.0 °F 37% 30.32 in 10.0 mi NNE 6.9 mph 16.1 mph N/A   Clear
1:53 PM 69.8 °F - 39.2 °F 33% 30.29 in 10.0 mi NE 10.4 mph - N/A   Clear
2:53 PM 70.0 °F - 37.9 °F 31% 30.27 in 10.0 mi NNE 9.2 mph - N/A   Clear
3:53 PM 69.1 °F - 37.0 °F 31% 30.27 in 10.0 mi NNE 10.4 mph - N/A   Clear
4:53 PM 66.0 °F - 36.0 °F 33% 30.27 in 10.0 mi NE 8.1 mph - N/A   Clear
5:53 PM 59.0 °F - 37.9 °F 46% 30.27 in 10.0 mi ENE 8.1 mph - N/A   Clear
6:53 PM 55.9 °F - 39.0 °F 53% 30.27 in 10.0 mi ENE 6.9 mph - N/A   Clear
7:53 PM 53.1 °F - 39.9 °F 61% 30.28 in 10.0 mi ENE 5.8 mph - N/A   Clear
8:53 PM 53.1 °F - 41.0 °F 64% 30.28 in 10.0 mi ENE 3.5 mph - N/A   Clear
9:53 PM 50.0 °F - 37.9 °F 63% 30.29 in 10.0 mi Calm Calm - N/A   Clear
10:53 PM 46.9 °F - 39.0 °F 74% 30.28 in 10.0 mi North 3.5 mph - N/A   Clear
11:53 PM 45.0 °F 40.6 °F 39.0 °F 80% 30.27 in 10.0 mi NE 8.1 mph - N/A   Clear